Location: Asheville, NC
(35.6000°N, 82.5500°W)
Time: 08:56:50
(UTC-05:00)

Vanguard 2 Rocket - Pass Details

Date: 15 December 2017
Orbit: 556 x 3326 km, 32.9° (Epoch: 17 January)

Event Time Altitude Azimuth Distance (km) Brightness Sun altitude
Rises 17:41:15 0° 218° (SW) 4,100 11.6 -5.0°
Reaches altitude 10° 17:43:47 10° 210° (SSW) 3,429 10.8 -5.4°
Maximum altitude 17:52:15 41° 143° (SE) 2,621 9.1 -7.0°
Drops below altitude 10° 18:06:13 10° 81° (E) 5,596 10.3 -9.6°
Enters shadow 18:06:37 - 81° (E) 5,695 10.3 -9.7°
Sets 18:11:40 0° 76° (ENE) 6,939 - -10.6°
